Show Low, AZ

10:03 PM MST on June 24, 2017 (GMT -0700)
Show Low Municipal

Weather History for KSOW - April, 2013

Change the Weather History Date:

Thursday, April 18, 2013

  Actual Average Record
Temperature  
Mean Temperature 32 °F -  
Max Temperature 44 °F 60 °F 82 °F (1989)
Min Temperature 19 °F 41 °F 19 °F (1976)
Degree Days  
Heating Degree Days 34    
Moisture  
Dew Point 11 °F    
Average Humidity 48    
Maximum Humidity 86    
Minimum Humidity 16    
Precipitation  
Precipitation 0.00 in - - ()
Sea Level Pressure  
Sea Level Pressure 30.17 in    
Wind  
Wind Speed 7 mph (North)    
Max Wind Speed 20 mph    
Max Gust Speed 28 mph    
Visibility 10 miles    
Events      
Averages and records for this station are not official NWS values.
T = Trace of Precipitation, MM = Missing Value Source: NWS Daily Summary

Daily Weather History Graph

Daily Weather History Graph

Search for Another Location

Airport or City:

Trip Planner

Search our weather history database for the weather conditions in past years. The results will help you decide how hot, cold, wet, or windy it might be!

Date:

Astronomy

Apr. 18, 2013 Rise Set
Actual Time 5:44 AM MST 6:54 PM MST
Civil Twilight 5:18 AM MST 7:20 PM MST
Nautical Twilight 4:47 AM MST 7:51 PM MST
Astronomical Twilight 4:15 AM MST 8:23 PM MST
Moon 12:02 PM MST (4/18) 1:07 AM MST (4/18)
Length of Visible Light 14h 01m
Length of Day
13h 09m
First Quarter, 53% of the Moon is Illuminated
Apr 18
First Quarter
Apr 25
Full
May 2
Last Quarter
May 9
New
May 17
First Quarter

Hourly Weather History & Observations

Time (MST) Temp. Windchill Dew Point Humidity Pressure Visibility Wind Dir Wind Speed Gust Speed Precip Events Conditions
12:15 AM 30.2 °F - 17.6 °F 60% 30.10 in 10.0 mi Calm Calm - N/A   Partly Cloudy
12:35 AM 30.2 °F 26.7 °F 17.6 °F 60% 30.10 in 10.0 mi NNW 3.5 mph - N/A   Clear
12:55 AM 28.4 °F 22.2 °F 17.6 °F 64% 30.10 in 10.0 mi NNW 5.8 mph - N/A   Clear
1:15 AM 26.6 °F 20.0 °F 17.6 °F 69% 30.10 in 10.0 mi NW 5.8 mph - N/A   Partly Cloudy
1:35 AM 26.6 °F 20.0 °F 17.6 °F 69% 30.09 in 10.0 mi NW 5.8 mph - N/A   Scattered Clouds
1:55 AM 26.6 °F 22.6 °F 17.6 °F 69% 30.09 in 10.0 mi North 3.5 mph - N/A   Scattered Clouds
2:15 AM 26.6 °F - 17.6 °F 69% 30.09 in 10.0 mi Calm Calm - N/A   Partly Cloudy
2:35 AM 24.8 °F 20.5 °F 15.8 °F 69% 30.09 in 10.0 mi North 3.5 mph - N/A   Clear
2:55 AM 24.8 °F 19.1 °F 15.8 °F 69% 30.09 in 10.0 mi North 4.6 mph - N/A   Clear
3:15 AM 23.0 °F 18.4 °F 15.8 °F 74% 30.10 in 10.0 mi North 3.5 mph - N/A   Clear
3:35 AM 23.0 °F - 15.8 °F 74% 30.10 in 10.0 mi Calm Calm - N/A   Clear
3:55 AM 23.0 °F 18.4 °F 15.8 °F 74% 30.10 in 10.0 mi North 3.5 mph - N/A   Clear
4:15 AM 21.2 °F 14.9 °F 15.8 °F 80% 30.10 in 10.0 mi NNE 4.6 mph - N/A   Clear
4:35 AM 21.2 °F - 15.8 °F 80% 30.10 in 10.0 mi Calm Calm - N/A   Clear
4:55 AM 19.4 °F 14.3 °F 15.8 °F 86% 30.10 in 10.0 mi North 3.5 mph - N/A   Clear
5:15 AM 19.4 °F 12.8 °F 15.8 °F 86% 30.11 in 10.0 mi North 4.6 mph - N/A   Clear
5:35 AM 19.4 °F - 15.8 °F 86% 30.11 in 10.0 mi Calm Calm - N/A   Clear
5:55 AM 19.4 °F - 15.8 °F 86% 30.12 in 10.0 mi Calm Calm - N/A   Clear
6:15 AM 19.4 °F - 15.8 °F 86% 30.13 in 10.0 mi Calm Calm - N/A   Clear
6:35 AM 23.0 °F - 17.6 °F 80% 30.14 in 10.0 mi Calm Calm - N/A   Clear
6:55 AM 24.8 °F - 17.6 °F 74% 30.15 in 10.0 mi Calm Calm - N/A   Clear
7:15 AM 24.8 °F 20.5 °F 17.6 °F 74% 30.15 in 10.0 mi NE 3.5 mph - N/A   Clear
7:35 AM 26.6 °F 20.0 °F 19.4 °F 74% 30.16 in 10.0 mi NNE 5.8 mph - N/A   Clear
7:55 AM 28.4 °F 18.5 °F 19.4 °F 69% 30.16 in 10.0 mi North 11.5 mph - N/A   Clear
8:15 AM 28.4 °F 19.1 °F 19.4 °F 69% 30.16 in 10.0 mi North 10.4 mph - N/A   Clear
8:35 AM 30.2 °F 20.8 °F 21.2 °F 69% 30.16 in 10.0 mi North 11.5 mph - N/A   Clear
8:55 AM 32.0 °F 23.0 °F 19.4 °F 60% 30.17 in 10.0 mi NNE 11.5 mph 16.1 mph N/A   Clear
9:15 AM 32.0 °F 22.5 °F 19.4 °F 60% 30.17 in 10.0 mi North 12.7 mph - N/A   Clear
9:35 AM 33.8 °F 24.8 °F 17.6 °F 52% 30.18 in 10.0 mi North 12.7 mph 19.6 mph N/A   Scattered Clouds
9:55 AM 35.6 °F 26.6 °F 17.6 °F 48% 30.18 in 10.0 mi North 13.8 mph 19.6 mph N/A   Scattered Clouds
10:15 AM 33.8 °F 24.8 °F 14.0 °F 44% 30.19 in 10.0 mi NNE 12.7 mph 20.7 mph N/A   Scattered Clouds
10:35 AM 35.6 °F 27.1 °F 14.0 °F 41% 30.19 in 10.0 mi NNE 12.7 mph 19.6 mph N/A   Scattered Clouds
10:55 AM 37.4 °F 28.2 °F 14.0 °F 38% 30.19 in 10.0 mi North 16.1 mph 20.7 mph N/A   Partly Cloudy
11:15 AM 37.4 °F 30.3 °F 14.0 °F 38% 30.20 in 10.0 mi NNW 10.4 mph 20.7 mph N/A   Scattered Clouds
11:35 AM 37.4 °F 28.5 °F 15.8 °F 41% 30.19 in 10.0 mi NNW 15.0 mph 23.0 mph N/A   Scattered Clouds
11:55 AM 37.4 °F 28.9 °F 14.0 °F 38% 30.18 in 10.0 mi NNW 13.8 mph 18.4 mph N/A   Scattered Clouds
12:15 PM 39.2 °F 31.2 °F 14.0 °F 36% 30.19 in 10.0 mi NNE 13.8 mph 23.0 mph N/A   Partly Cloudy
12:35 PM 39.2 °F 30.5 °F 10.4 °F 31% 30.18 in 10.0 mi North 16.1 mph 20.7 mph N/A   Clear
12:55 PM 41.0 °F 33.1 °F 10.4 °F 29% 30.18 in 10.0 mi NNW 15.0 mph 23.0 mph N/A   Clear
1:15 PM 41.0 °F 33.9 °F 6.8 °F 24% 30.18 in 10.0 mi NNW 12.7 mph 21.9 mph N/A   Clear
1:35 PM 42.8 °F 34.8 °F 6.8 °F 23% 30.18 in 10.0 mi NNW 17.3 mph 21.9 mph N/A   Clear
1:55 PM 42.8 °F 34.8 °F 6.8 °F 23% 30.18 in 10.0 mi NNW 17.3 mph 20.7 mph N/A   Clear
2:15 PM 44.6 °F 36.9 °F 6.8 °F 21% 30.18 in 10.0 mi North 18.4 mph 27.6 mph N/A   Clear
2:35 PM 44.6 °F 36.9 °F 6.8 °F 21% 30.18 in 10.0 mi North 18.4 mph 25.3 mph N/A   Clear
2:55 PM 44.6 °F 37.8 °F 6.8 °F 21% 30.17 in 10.0 mi NNW 15.0 mph 25.3 mph N/A   Clear
3:15 PM 44.6 °F 38.1 °F 6.8 °F 21% 30.17 in 10.0 mi NNE 13.8 mph 24.2 mph N/A   Clear
3:35 PM 44.6 °F 38.8 °F 5.0 °F 20% 30.17 in 10.0 mi North 11.5 mph 23.0 mph N/A   Clear
3:55 PM 44.6 °F 38.4 °F 5.0 °F 20% 30.17 in 10.0 mi NNW 12.7 mph 21.9 mph N/A   Clear
4:15 PM 44.6 °F 36.6 °F 5.0 °F 20% 30.17 in 10.0 mi NNW 19.6 mph 26.5 mph N/A   Clear
4:35 PM 44.6 °F 38.1 °F 3.2 °F 18% 30.18 in 10.0 mi North 13.8 mph 20.7 mph N/A   Clear
4:55 PM 44.6 °F 39.2 °F 3.2 °F 18% 30.18 in 10.0 mi North 10.4 mph 21.9 mph N/A   Clear
5:15 PM 44.6 °F 38.4 °F 3.2 °F 18% 30.19 in 10.0 mi North 12.7 mph 21.9 mph N/A   Clear
5:35 PM 44.6 °F 38.4 °F 1.4 °F 17% 30.20 in 10.0 mi North 12.7 mph - N/A   Clear
5:55 PM 44.6 °F 37.8 °F 1.4 °F 17% 30.20 in 10.0 mi North 15.0 mph - N/A   Clear
6:15 PM 42.8 °F 37.0 °F -0.4 °F 16% 30.21 in 10.0 mi NNW 10.4 mph - N/A   Clear
6:35 PM 41.0 °F 35.8 °F -0.4 °F 18% 30.21 in 10.0 mi North 8.1 mph - N/A   Clear
8:15 PM 35.6 °F 28.6 °F 1.4 °F 24% 30.26 in 10.0 mi North 9.2 mph - N/A   Clear
8:35 PM 33.8 °F 27.7 °F 1.4 °F 25% 30.27 in 10.0 mi NE 6.9 mph - N/A   Clear
8:55 PM 32.0 °F 25.6 °F 5.0 °F 32% 30.28 in 10.0 mi North 6.9 mph - N/A   Clear
9:15 PM 30.2 °F 26.7 °F 5.0 °F 34% 30.28 in 10.0 mi ENE 3.5 mph - N/A   Clear
9:35 PM 28.4 °F 22.2 °F 5.0 °F 37% 30.28 in 10.0 mi NE 5.8 mph - N/A   Clear
9:55 PM 28.4 °F 22.2 °F 6.8 °F 40% 30.28 in 10.0 mi ENE 5.8 mph - N/A   Clear
10:15 PM 26.6 °F 21.2 °F 6.8 °F 43% 30.28 in 10.0 mi ENE 4.6 mph - N/A   Clear
10:35 PM 26.6 °F 20.0 °F 6.8 °F 43% 30.29 in 10.0 mi NE 5.8 mph - N/A   Clear
10:55 PM 26.6 °F 21.2 °F 6.8 °F 43% 30.29 in 10.0 mi NE 4.6 mph - N/A   Clear
11:15 PM 26.6 °F 19.1 °F 5.0 °F 40% 30.29 in 10.0 mi ENE 6.9 mph - N/A   Clear
11:35 PM 28.4 °F 20.4 °F 5.0 °F 37% 30.29 in 10.0 mi ENE 8.1 mph - N/A   Clear
11:55 PM 26.6 °F 19.1 °F 5.0 °F 40% 30.29 in 10.0 mi ENE 6.9 mph - N/A   Clear